TIME,DELAY(SENSOR),PRES,OXYGEN,RAWTEMP,T(OPTODE),TCPHASE,FLUOR,BETA(BETA700),BETA(BETA412),BETA(BETA440),CDOM,C(CSC),ED(ED412.40),ED(ED444.00),ED(ED489.70),ED(ED554.30),LU(LU411.80),LU(LU443.40),LU(LU489.60),LU(LU554.10),COMP,TILTX,TILTY,CHECK
1371960169,5810,756.2199707031250000,41.9072303771972660,654.5255126953125000,4.8080368041992190,54.6505012512207000,53,102,86,79,79,15376,2147754057,2147425654,2148009938,2147875190,2147641828,2147058486,2148255561,2147198829,2235,4,13,31192
1371963765,5808,788.5800170898438000,43.9941291809082000,657.3756713867188000,4.7143311500549320,54.3757095336914060,53,101,86,79,79,15376,2147753974,2147428032,2148008612,2147873865,2147642121,2147052388,2148258788,2147198848,432,4,13,46717
1371967365,5808,802.4899902343750000,43.7744216918945300,657.4401245117188000,4.7122139930725100,54.4080085754394500,53,100,89,77,80,15375,2147752932,2147424393,2148010249,2147871972,2147640841,2147058029,2148255524,2147195154,210,4,13,5138
1371970965,5810,824.2100219726562000,45.1540298461914060,659.3391723632812000,4.6497249603271480,54.2259216308593750,53,99,85,78,79,15376,2147752694,2147423835,2148009654,2147871881,2147640402,2147058870,2148256018,2147198848,476,4,13,25170
1371974565,5811,828.4199829101562000,45.2617301940918000,660.2161865234375000,4.6208548545837400,54.2197914123535160,53,100,87,79,80,15376,2147756452,2147426477,2148011913,2147874843,2147640576,2147057453,2148260361,2147197513,3511,4,13,41930
1371978165,5808,827.7100219726562000,45.6602783203125000,660.7493286132812000,4.6033000946044920,54.1729393005371100,53,99,83,80,79,15372,2147749696,2147426011,2148009353,2147874203,2147641289,2147055597,2148258230,2147196909,262,4,13,32076
1371981765,5805,844.5599975585938000,49.0210189819335940,665.1320190429688000,4.4588718414306640,53.7468605041503900,52,100,88,79,79,15379,2147752758,2147423890,2148010715,2147869577,2147641910,2147055579,2148256347,2147196096,577,4,13,28624
1371985365,5804,851.8099975585938000,49.7182006835937500,665.2291259765625000,4.4556708335876465,53.6470794677734400,52,98,87,79,80,15350,2147755245,2147427638,2148013120,2147873627,2147642486,2147053357,2148256896,2147197302,215,4,13,19721
1371988965,5809,852.6599731445312000,50.1098213195800800,665.2852172851562000,4.4538187980651855,53.5962409973144500,52,98,85,79,79,15377,2147757129,2147425325,2148009316,2147873435,2147642011,2147054756,2148261531,2147199497,201,4,13,64482
1371992565,5810,869.7299804687500000,52.5513114929199200,667.8292846679688000,4.3698787689208980,53.2930107116699200,52,98,86,78,78,15379,2147757357,2147425920,2148009225,2147874797,2147640658,2147053668,2148262171,2147198363,295,4,13,54829
1371996165,5811,874.8300170898438000,53.0654716491699200,667.1633300781250000,4.3918590545654300,53.2186393737793000,52,98,87,79,79,15376,2147757549,2147426157,2148009225,2147869952,2147640109,2147057435,2148256502,2147194852,215,4,13,26069
1371999765,5810,880.0499877929688000,52.7699508666992200,667.2680053710938000,4.3884029388427730,53.2581787109375000,51,97,85,79,79,15376,2147755392,2147422601,2148010139,2147872100,2147640649,2147049325,2148260452,2147199707,202,4,13,22916
1372003365,5806,900.7600097656250000,52.5128784179687500,669.0103149414062000,4.3308868408203125,53.3130912780761700,52,99,88,79,80,15376,2147755474,2147421878,2148010989,2147873344,2147642752,2147051840,2148260333,2147198098,3242,4,13,46205
1372006965,5809,904.7899780273438000,53.3601684570312500,669.9984130859375000,4.2982521057128910,53.2149200439453100,52,96,83,79,79,15377,2147754276,2147424265,2148009929,2147872146,2147639808,2147052982,2148255725,2147194121,321,4,13,17091
1372010565,5809,905.5200195312500000,53.5536994934082000,669.8414916992188000,4.3034338951110840,53.1873397827148440,51,96,83,79,79,15377,2147753042,2147424402,2148012772,2147875337,2147640886,2147058185,2148261330,2147196589,737,4,13,47251
1372014165,5811,934.7199707031250000,52.9972305297851560,673.6735229492188000,4.1767711639404300,53.3077392578125000,52,96,83,78,80,15357,2147757833,2147421732,2148011510,2147872365,2147641472,2147052269,2148258907,2147199195,12,4,13,59243
1372017765,5805,936.1199951171875000,53.8719215393066400,671.1561279296875000,4.2599978446960450,53.1619911193847660,52,97,81,80,79,15376,2147756406,2147424850,2148010267,2147872896,2147641517,2147055570,2148256164,2147197092,3442,4,13,14865
1372021365,5811,942.6699829101562000,53.6033515930175800,670.7156982421875000,4.2745528221130370,53.1882209777832000,52,98,84,78,79,15371,2147758793,2147424173,2148009664,2147870665,2147641216,2147055616,2148260443,2147194916,448,4,13,62115
1372024965,5808,961.8499755859375000,52.8249015808105500,674.2653198242188000,4.1571960449218750,53.3379707336425800,52,98,86,79,80,15372,2147755181,2147426578,2148011885,2147872274,2147640310,2147053549,2148262189,2147199387,3367,4,13,27712
1372028565,5810,961.7299804687500000,53.9705810546875000,674.1171875000000000,4.1620941162109375,53.1868782043457000,52,97,85,77,79,15373,2147757961,2147423140,2148009865,2147872749,2147641718,2147053211,2148261129,2147200137,3564,4,13,20979
1372032165,5809,955.4299926757812000,53.1031112670898440,674.5657958984375000,4.1472530364990230,53.3046684265136700,52,98,88,79,80,15369,2147755373,2147422747,2148012224,2147872795,2147640877,2147048054,2148261686,2147197449,3552,4,13,64235
1372035765,5808,982.8599853515625000,55.1134414672851560,678.3829956054688000,4.0208759307861330,53.0900917053222660,52,96,85,79,78,15373,2147760429,2147423350,2148010020,2147872841,2147641499,2147052196,2148263670,2147201636,283,4,13,58538
1372039365,5810,986.9199829101562000,54.1305809020996100,678.5986938476562000,4.0137290954589840,53.2214393615722660,52,95,86,78,79,15371,2147754688,2147423277,2148013997,2147869723,2147639533,2147051126,2148263652,2147198601,255,4,13,23593
1372042965,5809,986.0000000000000000,55.2762489318847660,678.9370117187500000,4.0025200843811035,53.0755805969238300,53,95,85,78,79,15370,2147758555,2147422445,2148011090,2147871808,2147640091,2147055341,2148262016,2147196333,3577,4,13,2414
1372046565,5807,988.3599853515625000,55.6150894165039060,678.6729125976562000,4.0112709999084470,53.0275115966796900,51,97,86,80,79,15369,2147758473,2147425289,2148012352,2147875867,2147641819,2147056950,2148260864,2147198976,3290,4,13,40683
1372050165,5807,983.5499877929688000,55.3908996582031250,677.9357910156250000,4.0356898307800290,53.0430908203125000,52,98,87,78,80,15369,2147755538,2147424000,2148012461,2147875428,2147642011,2147050550,2148257490,2147201837,2288,4,13,55297
1372053765,5809,1002.0599975585938000,55.8185997009277340,678.0300292968750000,4.0325679779052730,52.9940986633300800,52,97,91,77,78,15371,2147755904,2147423012,2148014372,2147876297,2147642816,2147050578,2148259538,2147198857,2632,4,13,37030
1372057365,5809,989.2999877929688000,55.1180992126464840,678.4415893554688000,4.0189337730407715,53.0886001586914060,53,98,82,79,81,15370,2147755693,2147422884,2148009910,2147870025,2147641307,2147060059,2148258057,2147198025,3097,4,13,59448
1372060965,5808,994.6500244140625000,54.9403495788574200,678.0778808593750000,4.0309810638427730,53.1070785522460940,52,97,83,78,79,15369,2147754386,2147425179,2148009581,2147873709,2147643721,2147053842,2148262244,2147197952,3232,4,13,38769
1372064565,5809,992.2800292968750000,54.1421394348144500,677.4260864257812000,4.0525698661804200,53.2015686035156250,53,96,87,79,79,15368,2147752905,2147424228,2148007990,2147875675,2147643940,2147051684,2148262765,2147199789,221,4,13,47294
1372068165,5812,995.7399902343750000,55.6385383605957000,678.1970825195312000,4.0270309448242190,53.0154991149902340,53,97,84,80,80,15367,2147758281,2147425609,2148011456,2147874998,2147640676,2147054299,2148266450,2147196845,3375,4,13,5180
1372071765,5807,991.9500122070312000,55.0781288146972660,678.0791015625000000,4.0309429168701170,53.0920906066894500,52,97,85,78,79,15366,2147759296,2147423689,2148010861,2147876260,2147642011,2147050157,2148262180,2147198326,3048,4,13,26414
1372075365,5810,999.8599853515625000,55.0480804443359400,677.3195190429688000,4.0561032295227050,53.0822181701660160,52,97,84,80,80,15367,2147754980,2147422134,2148012717,2147874313,2147641709,2147055689,2148258505,2147194989,412,4,13,3834
1372078965,5804,988.5700073242188000,54.9267616271972660,678.2208251953125000,4.0262470245361330,53.1144409179687500,53,100,83,78,79,15369,2147754633,2147426413,2148012379,2147871579,2147639661,2147055570,2148259520,2147197659,269,4,13,17351
1372082565,5808,992.0300292968750000,54.9727096557617200,678.8710937500000000,4.0047039985656740,53.1148490905761700,52,96,83,78,80,15369,2147757129,2147424548,2148009490,2147875785,2147642633,2147054838,2148258569,2147196763,49,4,13,35254
1372086165,5807,996.2000122070312000,55.0437583923339840,678.7675781250000000,4.0081310272216800,53.1029586791992200,52,100,82,78,80,15367,2147755337,2147427008,2148010002,2147872292,2147641234,2147052041,2148263698,2147199789,323,4,13,64544
1372089765,5806,988.4299926757812000,54.9279518127441400,678.3010864257812000,4.0235881805419920,53.1087608337402340,52,97,81,79,79,15365,2147755748,2147428160,2148011154,2147872448,2147640905,2147055414,2148262381,2147197888,673,4,13,18096
1372093365,5812,991.7700195312500000,55.3152618408203100,678.5725708007812000,4.0145931243896480,53.0606498718261700,52,96,83,79,79,15367,2147753737,2147426861,2148013622,2147873161,2147641865,2147055003,2148266770,2147197595,481,4,13,39653
1372096965,5808,984.0700073242188000,55.2630691528320300,678.4760742187500000,4.0177898406982420,53.0707588195800800,53,98,85,78,79,15368,2147754678,2147422217,2148011245,2147875273,2147642889,2147059428,2148263387,2147196973,896,4,13,21783
1372100565,5808,995.1199951171875000,55.2163085937500000,678.2968139648438000,4.0237312316894530,53.0726318359375000,53,98,86,78,80,15365,2147755968,2147423140,2148010294,2147870445,2147642852,2147054107,2148261376,2147201645,154,4,13,4625
1372104165,5807,991.8699951171875000,54.9143791198730500,679.3140869140625000,3.9900209903717040,53.1306190490722660,53,95,83,79,80,15362,2147756571,2147422518,2148009216,2147872758,2147645769,2147059794,2148262665,2147197650,156,4,13,13377
1372104656,5810,994.0000000000000000,54.9043617248535160,679.3192749023438000,3.9898509979248047,53.1298789978027340,52,97,85,78,79,15358,2147756096,2147423954,2148009563,2147873691,2147640795,2147049581,2148259721,2147200758,3,4,13,52208
